Location: Cuiabá
(15.6014°S, 56.0979°W)
Time: 11:13:20
(UTC-04:00)

Envisat - Pass Details

Date: 28 November 2022
Orbit: 763 x 765 km, 98.2° (Epoch: 02 February)

Event Time Altitude Azimuth Distance (km) Brightness Sun altitude
Exits shadow 03:46:51 11° 355° (N) 2,229 5.1 -17.5°
Maximum altitude 03:51:34 49° 281° (W) 982 3.1 -16.5°
Drops below altitude 10° 03:56:29 10° 206° (SSW) 2,310 5.5 -15.5°
Sets 03:58:52 0° 200° (SSW) 3,242 6.3 -14.9°
